Simultaneous Nadir Overpasses (SNOs) Predictions

Prediction of SNOs between GOES-17 and METOP-C Satellite Orbit:

Table of predicted SNOs for the next 14.0 days since TLE Epoch: 7/21/2023
Index Date Time (GOES-17) GOES-17 Lat,Lon METOP-C Lat,Lon Distance(km) Time Diff (sec)
1 07/22/2023 04:11:03 0.00,-104.70 0.88,-100.78 446.89 80
2 07/23/2023 16:29:54 -0.00,-104.73 0.11,-105.35 69.60 80
3 07/24/2023 16:11:54 -0.00,-104.73 -1.00,-100.35 499.98 80
4 07/26/2023 04:30:51 0.00,-104.70 -0.07,-104.93 26.42 80
5 07/28/2023 16:29:02 -0.00,-104.72 -0.06,-104.50 25.27 80
6 07/31/2023 04:24:39 0.00,-104.68 0.13,-104.09 67.62 80
7 08/01/2023 16:43:30 -0.00,-104.69 0.85,-108.65 450.78 80
8 08/02/2023 16:25:28 0.00,-104.69 -0.21,-103.64 118.44 80
9 08/04/2023 04:44:26 -0.00,-104.66 -0.82,-108.23 407.18 80
